Time,TemperatureF,DewpointF,PressureIn,WindDirection,WindDirectionDegrees,WindSpeedMPH,WindSpeedGustMPH,Humidity,HourlyPrecipIn,Conditions,Clouds,dailyrainin,SoftwareType,DateUTC
2013-04-07 00:02:00,45.0,45.0,-100.00,ENE,64,1.0,2.0,100,-99.99,,,-99.99,,2013-04-07 07:02:00,
2013-04-07 00:12:00,45.0,45.0,-100.00,East,97,2.0,3.0,100,-99.99,,,-99.99,,2013-04-07 07:12:00,
2013-04-07 00:22:00,45.0,45.0,-100.00,SE,142,3.0,4.0,100,-99.99,,,-99.99,,2013-04-07 07:22:00,
2013-04-07 00:32:00,45.0,45.0,-100.00,ESE,123,3.0,3.0,100,-99.99,,,-99.99,,2013-04-07 07:32:00,
2013-04-07 00:42:00,45.0,45.0,-100.00,SE,128,2.0,3.0,100,-99.99,,,-99.99,,2013-04-07 07:42:00,
2013-04-07 00:52:00,44.0,44.0,-100.00,ESE,106,2.0,3.0,100,-99.99,,,-99.99,,2013-04-07 07:52:00,
2013-04-07 01:02:00,44.0,44.0,-100.00,East,86,2.0,3.0,100,-99.99,,,-99.99,,2013-04-07 08:02:00,
2013-04-07 01:12:00,44.0,44.0,-100.00,NNE,12,1.0,3.0,100,-99.99,,,-99.99,,2013-04-07 08:12:00,
2013-04-07 01:22:00,44.0,44.0,-100.00,ENE,72,1.0,3.0,100,-99.99,,,-99.99,,2013-04-07 08:22:00,
2013-04-07 01:32:00,43.0,43.0,-100.00,SE,141,2.0,3.0,100,-99.99,,,-99.99,,2013-04-07 08:32:00,
2013-04-07 01:42:00,43.0,43.0,-100.00,SE,127,1.0,2.0,100,-99.99,,,-99.99,,2013-04-07 08:42:00,
2013-04-07 01:52:00,43.0,43.0,-100.00,East,95,1.0,2.0,100,-99.99,,,-99.99,,2013-04-07 08:52:00,
2013-04-07 02:02:00,44.0,44.0,-100.00,East,81,1.0,2.0,100,-99.99,,,-99.99,,2013-04-07 09:02:00,
2013-04-07 02:12:00,44.0,44.0,-100.00,NE,51,2.0,4.0,100,-99.99,,,-99.99,,2013-04-07 09:12:00,
2013-04-07 02:22:00,45.0,45.0,-100.00,NNE,32,1.0,3.0,100,-99.99,,,-99.99,,2013-04-07 09:22:00,
2013-04-07 02:33:00,44.0,44.0,-100.00,WSW,241,1.0,2.0,100,-99.99,,,-99.99,,2013-04-07 09:33:00,
2013-04-07 02:42:00,43.0,43.0,-100.00,ESE,102,2.0,3.0,100,-99.99,,,-99.99,,2013-04-07 09:42:00,
2013-04-07 02:52:00,44.0,44.0,-100.00,ESE,119,1.0,2.0,100,-99.99,,,-99.99,,2013-04-07 09:52:00,
2013-04-07 03:03:00,44.0,44.0,-100.00,SSE,150,0.0,1.0,100,-99.99,,,-99.99,,2013-04-07 10:03:00,
2013-04-07 03:13:00,45.0,45.0,-100.00,WSW,257,0.0,2.0,100,-99.99,,,-99.99,,2013-04-07 10:13:00,
2013-04-07 03:22:00,45.0,45.0,-100.00,NNE,27,0.0,1.0,100,-99.99,,,-99.99,,2013-04-07 10:22:00,
2013-04-07 03:32:00,45.0,45.0,-100.00,North,-999,0.0,0.0,100,-99.99,,,-99.99,,2013-04-07 10:32:00,
2013-04-07 03:42:00,45.0,45.0,-100.00,SSW,211,0.0,1.0,100,-99.99,,,-99.99,,2013-04-07 10:42:00,
2013-04-07 03:52:00,45.0,45.0,-100.00,SE,137,1.0,2.0,100,-99.99,,,-99.99,,2013-04-07 10:52:00,
2013-04-07 04:02:00,45.0,45.0,-100.00,East,93,1.0,1.0,100,-99.99,,,-99.99,,2013-04-07 11:02:00,
2013-04-07 04:12:00,44.0,44.0,-100.00,SW,228,0.0,1.0,100,-99.99,,,-99.99,,2013-04-07 11:12:00,
2013-04-07 04:22:00,44.0,44.0,-100.00,North,3,0.0,2.0,100,-99.99,,,-99.99,,2013-04-07 11:22:00,
2013-04-07 04:32:00,43.0,43.0,-100.00,NNE,23,1.0,2.0,100,-99.99,,,-99.99,,2013-04-07 11:32:00,
2013-04-07 04:42:00,42.0,42.0,-100.00,NNE,20,0.0,2.0,100,-99.99,,,-99.99,,2013-04-07 11:42:00,
2013-04-07 04:52:00,41.0,41.0,-100.00,NE,56,1.0,2.0,100,-99.99,,,-99.99,,2013-04-07 11:52:00,
2013-04-07 05:02:00,41.0,41.0,-100.00,NNE,31,1.0,3.0,100,-99.99,,,-99.99,,2013-04-07 12:02:00,
2013-04-07 05:12:00,41.0,41.0,-100.00,East,84,1.0,2.0,100,-99.99,,,-99.99,,2013-04-07 12:12:00,
2013-04-07 05:22:00,40.0,40.0,-100.00,East,95,1.0,3.0,100,-99.99,,,-99.99,,2013-04-07 12:22:00,
2013-04-07 05:33:00,40.0,40.0,-100.00,ESE,104,1.0,3.0,100,-99.99,,,-99.99,,2013-04-07 12:33:00,
2013-04-07 05:42:00,40.0,40.0,-100.00,SW,222,1.0,2.0,100,-99.99,,,-99.99,,2013-04-07 12:42:00,
2013-04-07 05:52:00,40.0,40.0,-100.00,West,268,0.0,1.0,100,-99.99,,,-99.99,,2013-04-07 12:52:00,
2013-04-07 06:02:00,39.0,39.0,-100.00,ENE,58,0.0,1.0,100,-99.99,,,-99.99,,2013-04-07 13:02:00,
2013-04-07 06:12:00,38.0,38.0,-100.00,NE,43,1.0,2.0,100,-99.99,,,-99.99,,2013-04-07 13:12:00,
2013-04-07 06:22:00,38.0,38.0,-100.00,ENE,78,2.0,3.0,100,-99.99,,,-99.99,,2013-04-07 13:22:00,
2013-04-07 06:32:00,38.0,38.0,-100.00,SE,124,0.0,2.0,100,-99.99,,,-99.99,,2013-04-07 13:32:00,
2013-04-07 06:42:00,38.0,38.0,-100.00,SE,144,2.0,3.0,100,-99.99,,,-99.99,,2013-04-07 13:42:00,
2013-04-07 06:52:00,37.0,37.0,-100.00,SE,132,1.0,2.0,100,-99.99,,,-99.99,,2013-04-07 13:52:00,
2013-04-07 07:02:00,37.0,37.0,-100.00,NE,54,1.0,3.0,100,-99.99,,,-99.99,,2013-04-07 14:02:00,
2013-04-07 07:12:00,37.0,37.0,-100.00,SE,145,0.0,1.0,100,-99.99,,,-99.99,,2013-04-07 14:12:00,
2013-04-07 07:22:00,37.0,37.0,-100.00,SSE,161,1.0,2.0,100,-99.99,,,-99.99,,2013-04-07 14:22:00,
2013-04-07 07:32:00,36.0,36.0,-100.00,East,81,1.0,2.0,100,-99.99,,,-99.99,,2013-04-07 14:32:00,
2013-04-07 07:42:00,37.0,37.0,-100.00,East,91,1.0,2.0,100,-99.99,,,-99.99,,2013-04-07 14:42:00,
2013-04-07 07:53:00,37.0,37.0,-100.00,ENE,69,1.0,2.0,100,-99.99,,,-99.99,,2013-04-07 14:53:00,
2013-04-07 08:02:00,39.0,39.0,-100.00,East,93,0.0,2.0,100,-99.99,,,-99.99,,2013-04-07 15:02:00,
2013-04-07 08:12:00,41.0,41.0,-100.00,NE,52,0.0,1.0,100,-99.99,,,-99.99,,2013-04-07 15:12:00,
2013-04-07 08:22:00,42.0,42.0,-100.00,NE,47,0.0,1.0,100,-99.99,,,-99.99,,2013-04-07 15:22:00,
2013-04-07 08:33:00,42.0,42.0,-100.00,NE,47,0.0,1.0,100,-99.99,,,-99.99,,2013-04-07 15:33:00,
2013-04-07 08:43:00,44.0,44.0,-100.00,WNW,282,1.0,2.0,100,-99.99,,,-99.99,,2013-04-07 15:43:00,
2013-04-07 08:53:00,45.0,45.0,-100.00,West,272,1.0,3.0,100,-99.99,,,-99.99,,2013-04-07 15:53:00,
2013-04-07 09:03:00,46.0,46.0,-100.00,West,277,1.0,3.0,100,-99.99,,,-99.99,,2013-04-07 16:03:00,
2013-04-07 09:13:00,47.0,47.0,-100.00,WNW,282,1.0,3.0,100,-99.99,,,-99.99,,2013-04-07 16:13:00,
2013-04-07 09:23:00,48.0,48.0,-100.00,West,264,1.0,2.0,100,-99.99,,,-99.99,,2013-04-07 16:23:00,
2013-04-07 09:32:00,50.0,50.0,-100.00,SW,219,1.0,1.0,100,-99.99,,,-99.99,,2013-04-07 16:32:00,
2013-04-07 09:42:00,53.0,52.0,-100.00,West,259,1.0,3.0,96,-99.99,,,-99.99,,2013-04-07 16:42:00,
2013-04-07 09:53:00,55.0,52.0,-100.00,NW,310,1.0,3.0,90,-99.99,,,-99.99,,2013-04-07 16:53:00,
2013-04-07 10:12:00,58.0,51.0,-100.00,West,271,2.0,5.0,78,-99.99,,,-99.99,,2013-04-07 17:12:00,
2013-04-07 10:22:00,59.0,51.0,-100.00,West,278,1.0,2.0,75,-99.99,,,-99.99,,2013-04-07 17:22:00,
2013-04-07 10:32:00,61.0,51.0,-100.00,SSW,201,1.0,7.0,70,-99.99,,,-99.99,,2013-04-07 17:32:00,
2013-04-07 10:42:00,62.0,50.0,-100.00,SSW,198,2.0,6.0,64,-99.99,,,-99.99,,2013-04-07 17:42:00,
2013-04-07 10:52:00,62.0,48.0,-100.00,WSW,247,3.0,6.0,61,-99.99,,,-99.99,,2013-04-07 17:52:00,
2013-04-07 11:02:00,62.0,48.0,-100.00,WSW,247,3.0,6.0,61,-99.99,,,-99.99,,2013-04-07 18:02:00,
2013-04-07 11:12:00,63.0,45.0,-100.00,SW,235,4.0,10.0,52,-99.99,,,-99.99,,2013-04-07 18:12:00,
2013-04-07 11:22:00,64.0,45.0,-100.00,SW,233,4.0,7.0,50,-99.99,,,-99.99,,2013-04-07 18:22:00,
2013-04-07 11:32:00,65.0,44.0,-100.00,West,263,4.0,7.0,47,-99.99,,,-99.99,,2013-04-07 18:32:00,
2013-04-07 11:42:00,65.0,43.0,-100.00,West,260,4.0,8.0,45,-99.99,,,-99.99,,2013-04-07 18:42:00,
2013-04-07 11:52:00,66.0,44.0,-100.00,SSW,207,4.0,8.0,45,-99.99,,,-99.99,,2013-04-07 18:52:00,
2013-04-07 12:02:00,66.0,44.0,-100.00,SSW,207,4.0,8.0,45,-99.99,,,-99.99,,2013-04-07 19:02:00,
2013-04-07 12:12:00,66.0,42.0,-100.00,WSW,243,6.0,9.0,42,-99.99,,,-99.99,,2013-04-07 19:12:00,
2013-04-07 12:22:00,66.0,43.0,-100.00,WSW,256,8.0,14.0,44,-99.99,,,-99.99,,2013-04-07 19:22:00,
2013-04-07 12:32:00,65.0,44.0,-100.00,West,270,8.0,14.0,46,-99.99,,,-99.99,,2013-04-07 19:32:00,
2013-04-07 12:42:00,66.0,46.0,-100.00,West,266,9.0,15.0,48,-99.99,,,-99.99,,2013-04-07 19:42:00,
2013-04-07 12:52:00,66.0,45.0,-100.00,West,264,8.0,13.0,47,-99.99,,,-99.99,,2013-04-07 19:52:00,
2013-04-07 13:02:00,66.0,45.0,-100.00,West,265,9.0,14.0,47,-99.99,,,-99.99,,2013-04-07 20:02:00,
2013-04-07 13:12:00,66.0,46.0,-100.00,West,268,7.0,12.0,48,-99.99,,,-99.99,,2013-04-07 20:12:00,
2013-04-07 13:22:00,66.0,45.0,-100.00,West,272,8.0,14.0,47,-99.99,,,-99.99,,2013-04-07 20:22:00,
2013-04-07 13:32:00,67.0,46.0,-100.00,West,269,9.0,14.0,46,-99.99,,,-99.99,,2013-04-07 20:32:00,
2013-04-07 13:42:00,66.0,45.0,-100.00,West,264,9.0,16.0,47,-99.99,,,-99.99,,2013-04-07 20:42:00,
2013-04-07 13:52:00,66.0,46.0,-100.00,West,265,9.0,15.0,49,-99.99,,,-99.99,,2013-04-07 20:52:00,
2013-04-07 14:02:00,65.0,46.0,-100.00,West,266,10.0,15.0,50,-99.99,,,-99.99,,2013-04-07 21:02:00,
2013-04-07 14:12:00,66.0,46.0,-100.00,WSW,254,8.0,16.0,49,-99.99,,,-99.99,,2013-04-07 21:12:00,
2013-04-07 14:21:00,66.0,46.0,-100.00,West,269,8.0,15.0,49,-99.99,,,-99.99,,2013-04-07 21:21:00,
2013-04-07 14:33:00,66.0,46.0,-100.00,West,266,8.0,14.0,49,-99.99,,,-99.99,,2013-04-07 21:33:00,
2013-04-07 14:43:00,66.0,47.0,-100.00,WSW,243,9.0,15.0,50,-99.99,,,-99.99,,2013-04-07 21:43:00,
2013-04-07 14:53:00,66.0,46.0,-100.00,WSW,245,8.0,13.0,49,-99.99,,,-99.99,,2013-04-07 21:53:00,
2013-04-07 15:03:00,66.0,47.0,-100.00,West,259,8.0,13.0,51,-99.99,,,-99.99,,2013-04-07 22:03:00,
2013-04-07 15:13:00,66.0,47.0,-100.00,WSW,248,9.0,14.0,50,-99.99,,,-99.99,,2013-04-07 22:13:00,
2013-04-07 15:23:00,67.0,48.0,-100.00,WSW,247,9.0,16.0,50,-99.99,,,-99.99,,2013-04-07 22:23:00,
2013-04-07 15:33:00,66.0,47.0,-100.00,WSW,255,9.0,17.0,51,-99.99,,,-99.99,,2013-04-07 22:33:00,
2013-04-07 15:42:00,66.0,47.0,-100.00,WSW,255,10.0,16.0,51,-99.99,,,-99.99,,2013-04-07 22:42:00,
2013-04-07 15:52:00,66.0,48.0,-100.00,WSW,248,9.0,15.0,53,-99.99,,,-99.99,,2013-04-07 22:52:00,
2013-04-07 16:02:00,66.0,48.0,-100.00,WSW,256,9.0,14.0,52,-99.99,,,-99.99,,2013-04-07 23:02:00,
2013-04-07 16:12:00,66.0,47.0,-100.00,West,265,9.0,15.0,51,-99.99,,,-99.99,,2013-04-07 23:12:00,
2013-04-07 16:22:00,66.0,48.0,-100.00,WSW,248,8.0,14.0,52,-99.99,,,-99.99,,2013-04-07 23:22:00,
2013-04-07 16:32:00,65.0,47.0,-100.00,WSW,253,9.0,14.0,53,-99.99,,,-99.99,,2013-04-07 23:32:00,
2013-04-07 16:42:00,65.0,48.0,-100.00,West,259,9.0,15.0,54,-99.99,,,-99.99,,2013-04-07 23:42:00,
2013-04-07 16:52:00,66.0,48.0,-100.00,West,264,7.0,14.0,52,-99.99,,,-99.99,,2013-04-07 23:52:00,
2013-04-07 17:02:00,66.0,48.0,-100.00,West,264,7.0,14.0,52,-99.99,,,-99.99,,2013-04-08 00:02:00,
2013-04-07 17:12:00,64.0,48.0,-100.00,WSW,257,8.0,14.0,56,-99.99,,,-99.99,,2013-04-08 00:12:00,
2013-04-07 17:22:00,64.0,49.0,-100.00,WSW,254,8.0,13.0,58,-99.99,,,-99.99,,2013-04-08 00:22:00,
2013-04-07 17:32:00,63.0,49.0,-100.00,WSW,252,9.0,14.0,60,-99.99,,,-99.99,,2013-04-08 00:32:00,
2013-04-07 17:42:00,63.0,49.0,-100.00,West,261,9.0,15.0,60,-99.99,,,-99.99,,2013-04-08 00:42:00,
2013-04-07 17:52:00,63.0,48.0,-100.00,West,263,8.0,15.0,59,-99.99,,,-99.99,,2013-04-08 00:52:00,
2013-04-07 18:02:00,63.0,49.0,-100.00,WSW,258,8.0,14.0,60,-99.99,,,-99.99,,2013-04-08 01:02:00,
2013-04-07 18:12:00,63.0,50.0,-100.00,WSW,258,8.0,14.0,62,-99.99,,,-99.99,,2013-04-08 01:12:00,
2013-04-07 18:22:00,63.0,50.0,-100.00,West,260,7.0,12.0,62,-99.99,,,-99.99,,2013-04-08 01:22:00,
2013-04-07 18:32:00,62.0,49.0,-100.00,WSW,255,8.0,12.0,63,-99.99,,,-99.99,,2013-04-08 01:32:00,
2013-04-07 18:42:00,62.0,51.0,-100.00,WSW,258,6.0,10.0,66,-99.99,,,-99.99,,2013-04-08 01:42:00,
2013-04-07 18:53:00,61.0,51.0,-100.00,WSW,253,7.0,12.0,69,-99.99,,,-99.99,,2013-04-08 01:53:00,
2013-04-07 19:02:00,60.0,51.0,-100.00,WSW,252,8.0,12.0,73,-99.99,,,-99.99,,2013-04-08 02:02:00,
2013-04-07 19:12:00,60.0,52.0,-100.00,WSW,248,8.0,13.0,75,-99.99,,,-99.99,,2013-04-08 02:12:00,
2013-04-07 19:22:00,59.0,52.0,-100.00,WSW,241,6.0,10.0,78,-99.99,,,-99.99,,2013-04-08 02:22:00,
2013-04-07 19:32:00,58.0,52.0,-100.00,WSW,245,6.0,11.0,80,-99.99,,,-99.99,,2013-04-08 02:32:00,
2013-04-07 19:44:00,57.0,51.0,-100.00,WSW,238,6.0,11.0,81,-99.99,,,-99.99,,2013-04-08 02:44:00,
2013-04-07 19:52:00,56.0,51.0,-100.00,WSW,248,7.0,11.0,84,-99.99,,,-99.99,,2013-04-08 02:52:00,
2013-04-07 20:04:00,56.0,52.0,-100.00,WSW,246,6.0,10.0,86,-99.99,,,-99.99,,2013-04-08 03:04:00,
2013-04-07 20:13:00,55.0,52.0,-100.00,WSW,247,4.0,7.0,88,-99.99,,,-99.99,,2013-04-08 03:13:00,
2013-04-07 20:23:00,55.0,52.0,-100.00,WSW,254,5.0,8.0,89,-99.99,,,-99.99,,2013-04-08 03:23:00,
2013-04-07 20:33:00,54.0,51.0,-100.00,West,271,6.0,11.0,91,-99.99,,,-99.99,,2013-04-08 03:33:00,
2013-04-07 20:44:00,53.0,51.0,-100.00,West,265,4.0,10.0,93,-99.99,,,-99.99,,2013-04-08 03:44:00,
2013-04-07 20:53:00,53.0,52.0,-100.00,SSE,163,2.0,5.0,95,-99.99,,,-99.99,,2013-04-08 03:53:00,
2013-04-07 21:02:00,52.0,51.0,-100.00,NE,47,1.0,2.0,96,-99.99,,,-99.99,,2013-04-08 04:02:00,
2013-04-07 21:12:00,53.0,52.0,-100.00,South,181,1.0,2.0,97,-99.99,,,-99.99,,2013-04-08 04:12:00,
2013-04-07 21:23:00,52.0,51.0,-100.00,West,281,1.0,3.0,97,-99.99,,,-99.99,,2013-04-08 04:23:00,
2013-04-07 21:33:00,51.0,50.0,-100.00,NNW,341,1.0,2.0,97,-99.99,,,-99.99,,2013-04-08 04:33:00,
2013-04-07 21:43:00,50.0,50.0,-100.00,NNW,333,1.0,2.0,99,-99.99,,,-99.99,,2013-04-08 04:43:00,
2013-04-07 21:52:00,51.0,51.0,-100.00,NNE,27,1.0,2.0,100,-99.99,,,-99.99,,2013-04-08 04:52:00,
2013-04-07 22:02:00,50.0,50.0,-100.00,East,81,1.0,3.0,100,-99.99,,,-99.99,,2013-04-08 05:02:00,
2013-04-07 22:12:00,50.0,50.0,-100.00,SW,227,1.0,2.0,100,-99.99,,,-99.99,,2013-04-08 05:12:00,
2013-04-07 22:22:00,50.0,50.0,-100.00,SW,227,1.0,2.0,100,-99.99,,,-99.99,,2013-04-08 05:22:00,
2013-04-07 22:32:00,48.0,48.0,-100.00,SSE,156,2.0,3.0,100,-99.99,,,-99.99,,2013-04-08 05:32:00,
2013-04-07 22:42:00,47.0,47.0,-100.00,SE,124,3.0,3.0,100,-99.99,,,-99.99,,2013-04-08 05:42:00,
2013-04-07 22:52:00,46.0,46.0,-100.00,ESE,119,3.0,4.0,100,-99.99,,,-99.99,,2013-04-08 05:52:00,
2013-04-07 23:02:00,47.0,47.0,-100.00,ESE,112,2.0,4.0,100,-99.99,,,-99.99,,2013-04-08 06:02:00,
2013-04-07 23:12:00,48.0,48.0,-100.00,NNE,30,0.0,1.0,100,-99.99,,,-99.99,,2013-04-08 06:12:00,
2013-04-07 23:21:00,47.0,47.0,-100.00,SW,216,0.0,1.0,100,-99.99,,,-99.99,,2013-04-08 06:21:00,
2013-04-07 23:32:00,47.0,47.0,-100.00,SSE,149,1.0,2.0,100,-99.99,,,-99.99,,2013-04-08 06:32:00,
2013-04-07 23:42:00,47.0,47.0,-100.00,ESE,115,1.0,2.0,100,-99.99,,,-99.99,,2013-04-08 06:42:00,
2013-04-07 23:52:00,47.0,47.0,-100.00,NE,54,0.0,2.0,100,-99.99,,,-99.99,,2013-04-08 06:52:00,